timestamp,surface_pressure_avg,surface_temp_avg,battery_voltage,lat,long
2018-08-30 00:00:00+00:00,323.8897,19.9,13.05,47.84626,-54.09684
2018-08-30 00:10:00+00:00,334.2329,19.9,13.05,47.84626,-54.09684
2018-08-30 00:20:00+00:00,343.0446,19.9,13.05,47.84626,-54.09684
2018-08-30 00:30:00+00:00,351.0347,19.9,13.05,47.84626,-54.09684
2018-08-30 00:40:00+00:00,356.848,19.9,13.13,47.84626,-54.09684
2018-08-30 00:50:00+00:00,360.4547,19.9,13.13,47.84626,-54.09684
2018-08-30 01:00:00+00:00,361.8496,19.89,13.05,47.84626,-54.09684
2018-08-30 01:10:00+00:00,362.4329,19.88,12.97,47.84626,-54.09684
2018-08-30 01:20:00+00:00,368.1963,19.88,13.05,47.84626,-54.09684
2018-08-30 01:30:00+00:00,368.1912,19.89,13.05,47.84626,-54.09684
2018-08-30 01:40:00+00:00,365.608,19.89,13.05,47.84626,-54.09684
2018-08-30 01:50:00+00:00,364.2245,19.84,13.05,47.84626,-54.09684
2018-08-30 02:00:00+00:00,363.3096,19.8,13.05,47.84626,-54.09684
2018-08-30 02:10:00+00:00,361.1712,19.8,12.97,47.84626,-54.09684
2018-08-30 02:20:00+00:00,358.1113,19.8,13.05,47.84626,-54.09684
2018-08-30 02:30:00+00:00,355.3162,19.8,13.05,47.84626,-54.09684
2018-08-30 02:40:00+00:00,355.4596,19.79,13.05,47.84626,-54.09684
2018-08-30 02:50:00+00:00,347.1329,19.7,13.05,47.84626,-54.09684
2018-08-30 03:00:00+00:00,336.6629,19.7,12.97,47.84626,-54.09684
2018-08-30 03:10:00+00:00,336.7114,19.7,12.89,47.84626,-54.09684
2018-08-30 03:20:00+00:00,337.5796,19.71,12.97,47.84626,-54.09684
2018-08-30 03:30:00+00:00,328.8863,19.7,12.97,47.84626,-54.09684
2018-08-30 03:40:00+00:00,321.5763,19.7,13.05,47.84626,-54.09684
2018-08-30 03:50:00+00:00,324.0779,19.7,13.05,47.84626,-54.09684
2018-08-30 04:00:00+00:00,319.5947,19.7,12.97,47.84626,-54.09684
2018-08-30 04:10:00+00:00,314.018,19.7,12.89,47.84626,-54.09684
2018-08-30 04:20:00+00:00,311.608,19.7,12.97,47.84626,-54.09684
2018-08-30 04:30:00+00:00,307.4747,19.69,12.97,47.84626,-54.09684
2018-08-30 04:40:00+00:00,296.753,19.67,12.97,47.84626,-54.09684
2018-08-30 04:50:00+00:00,288.2014,19.63,12.97,47.84626,-54.09684
2018-08-30 05:00:00+00:00,285.2314,19.61,12.89,47.84626,-54.09684
2018-08-30 05:10:00+00:00,279.1398,19.6,12.81,47.84626,-54.09684
2018-08-30 05:20:00+00:00,268.7047,19.6,12.89,47.84626,-54.09684
2018-08-30 05:30:00+00:00,260.0064,19.6,12.89,47.84626,-54.09684
2018-08-30 05:40:00+00:00,251.0181,19.6,12.97,47.84626,-54.09684
2018-08-30 05:50:00+00:00,241.1031,19.6,12.97,47.84626,-54.09684
2018-08-30 06:00:00+00:00,234.1548,19.6,12.89,47.84626,-54.09684
2018-08-30 06:10:00+00:00,231.2114,19.6,12.81,47.84626,-54.09684
2018-08-30 06:20:00+00:00,226.9331,19.6,12.89,47.84626,-54.09684
2018-08-30 06:30:00+00:00,221.5315,19.6,12.89,47.84626,-54.09684
2018-08-30 06:40:00+00:00,218.3232,19.6,12.89,47.84626,-54.09684
2018-08-30 06:50:00+00:00,214.3997,19.6,12.89,47.84626,-54.09684
2018-08-30 07:00:00+00:00,209.2564,19.59,12.89,47.84626,-54.09684
2018-08-30 07:10:00+00:00,207.0448,19.56,12.81,47.84626,-54.09684
2018-08-30 07:20:00+00:00,208.2648,19.5,12.89,47.84626,-54.09684
2018-08-30 07:30:00+00:00,209.2531,19.5,12.89,47.84626,-54.09684
2018-08-30 07:40:00+00:00,210.9932,19.5,12.89,47.84626,-54.09684
2018-08-30 07:50:00+00:00,213.4765,19.5,12.89,47.84626,-54.09684
2018-08-30 08:00:00+00:00,215.7431,19.5,12.89,47.84626,-54.09684
2018-08-30 08:10:00+00:00,216.9781,19.5,12.81,47.84626,-54.09684
2018-08-30 08:20:00+00:00,219.6931,19.52,12.89,47.84626,-54.09684
2018-08-30 08:30:00+00:00,224.7614,19.56,12.89,47.84626,-54.09684
2018-08-30 08:40:00+00:00,232.0231,19.55,12.89,47.84626,-54.09684
2018-08-30 08:50:00+00:00,235.8215,19.5,12.89,47.84626,-54.09684
2018-08-30 09:00:00+00:00,234.5781,19.5,12.81,47.84626,-54.09684
2018-08-30 09:10:00+00:00,239.4131,19.5,12.81,47.84626,-54.09684
2018-08-30 09:20:00+00:00,246.1531,19.5,12.89,47.84626,-54.09684
2018-08-30 09:30:00+00:00,247.7747,19.48,13.05,47.84626,-54.09684
2018-08-30 09:40:00+00:00,251.2381,19.42,13.29,47.84626,-54.09684
2018-08-30 09:50:00+00:00,260.5481,19.5,13.37,47.84626,-54.09684
2018-08-30 10:00:00+00:00,265.4064,19.49,13.37,47.84626,-54.09684
2018-08-30 10:10:00+00:00,263.4648,19.4,13.29,47.84626,-54.09684
2018-08-30 10:20:00+00:00,266.6347,19.4,13.37,47.84626,-54.09684
2018-08-30 10:30:00+00:00,273.2814,19.4,13.44,47.84626,-54.09684
2018-08-30 10:40:00+00:00,278.9364,19.48,13.53,47.84626,-54.09684
2018-08-30 10:50:00+00:00,281.2764,19.5,13.6,47.84626,-54.09684
2018-08-30 11:00:00+00:00,284.0397,19.5,13.6,47.84626,-54.09684
2018-08-30 11:10:00+00:00,288.2997,19.5,13.44,47.84626,-54.09684
2018-08-30 11:20:00+00:00,295.5813,19.5,13.6,47.84626,-54.09684
2018-08-30 11:30:00+00:00,299.3581,19.5,13.76,47.84626,-54.09684
2018-08-30 11:40:00+00:00,304.038,19.3,14.32,47.84626,-54.09684
2018-08-30 11:50:00+00:00,311.2047,19.4,14.08,47.84626,-54.09684
2018-08-30 12:00:00+00:00,320.9963,19.5,13.92,47.84626,-54.09684
2018-08-30 12:10:00+00:00,326.3212,19.1,13.76,47.84626,-54.09684
2018-08-30 12:20:00+00:00,332.6329,19.1,13.84,47.84626,-54.09684
2018-08-30 12:30:00+00:00,340.4863,19.1,13.92,47.84626,-54.09684
2018-08-30 12:40:00+00:00,347.7597,19.0,14.0,47.84626,-54.09684
2018-08-30 12:50:00+00:00,351.463,19.1,14.08,47.84626,-54.09684
2018-08-30 13:00:00+00:00,357.9046,18.9,14.24,47.84626,-54.09684
2018-08-30 13:10:00+00:00,358.3646,18.89,14.24,47.84626,-54.09684
2018-08-30 13:20:00+00:00,358.6511,18.99,14.32,47.84626,-54.09684
2018-08-30 13:30:00+00:00,360.1796,19.0,15.83,47.84626,-54.09684
2018-08-30 13:40:00+00:00,358.8213,19.2,14.56,47.84626,-54.09684
2018-08-30 13:50:00+00:00,356.068,19.1,14.48,47.84626,-54.09684
2018-08-30 14:00:00+00:00,356.2929,18.9,14.32,47.84626,-54.09684
2018-08-30 14:10:00+00:00,357.5862,18.86,14.16,47.84626,-54.09684
2018-08-30 14:20:00+00:00,354.1597,18.98,14.4,47.84626,-54.09684
2018-08-30 14:30:00+00:00,350.5712,19.08,14.88,47.84626,-54.09684
2018-08-30 14:40:00+00:00,352.9497,18.7,14.56,47.84626,-54.09684
2018-08-30 14:50:00+00:00,353.2646,18.56,14.48,47.84626,-54.09684
2018-08-30 15:00:00+00:00,342.4679,18.96,14.24,47.84626,-54.09684
2018-08-30 15:10:00+00:00,341.1396,18.7,14.08,47.84626,-54.09684
2018-08-30 15:20:00+00:00,343.3047,18.6,14.08,47.84626,-54.09684
2018-08-30 15:30:00+00:00,334.728,18.71,14.08,47.84626,-54.09684
2018-08-30 15:40:00+00:00,327.8879,18.8,14.0,47.84626,-54.09684
2018-08-30 15:50:00+00:00,328.8347,18.8,14.0,47.84626,-54.09684
2018-08-30 16:00:00+00:00,327.2146,18.8,13.84,47.84626,-54.09684
2018-08-30 16:10:00+00:00,317.7497,18.82,13.68,47.84626,-54.09684
2018-08-30 16:20:00+00:00,314.333,18.8,13.76,47.84626,-54.09684
2018-08-30 16:30:00+00:00,312.323,18.8,13.76,47.84626,-54.09684
2018-08-30 16:40:00+00:00,302.8914,18.8,13.84,47.84626,-54.09684
2018-08-30 16:50:00+00:00,289.5614,18.82,13.76,47.84626,-54.09684
2018-08-30 17:00:00+00:00,279.9681,18.81,13.68,47.84626,-54.09684
2018-08-30 17:10:00+00:00,273.8113,18.8,13.53,47.84626,-54.09684
2018-08-30 17:20:00+00:00,265.3281,18.8,13.6,47.84626,-54.09684
2018-08-30 17:30:00+00:00,254.7498,18.87,13.68,47.84626,-54.09684
2018-08-30 17:40:00+00:00,246.1547,18.89,13.76,47.84626,-54.09684
2018-08-30 17:50:00+00:00,238.9131,18.87,13.92,47.84626,-54.09684
2018-08-30 18:00:00+00:00,232.0698,18.87,13.84,47.84626,-54.09684
2018-08-30 18:10:00+00:00,225.6297,18.9,13.76,47.84626,-54.09684
2018-08-30 18:20:00+00:00,221.4598,18.9,13.76,47.84626,-54.09684
2018-08-30 18:30:00+00:00,213.8681,18.9,13.76,47.84626,-54.09684
2018-08-30 18:40:00+00:00,202.9298,18.9,13.76,47.84626,-54.09684
2018-08-30 18:50:00+00:00,193.4781,18.88,13.68,47.84626,-54.09684
2018-08-30 19:00:00+00:00,184.6181,18.8,13.68,47.84626,-54.09684
2018-08-30 19:10:00+00:00,180.6281,18.8,13.44,47.84626,-54.09684
2018-08-30 19:20:00+00:00,181.0414,18.8,13.53,47.84626,-54.09684
2018-08-30 19:30:00+00:00,177.6965,18.8,13.44,47.84626,-54.09684
2018-08-30 19:40:00+00:00,174.4098,18.8,13.44,47.84626,-54.09684
2018-08-30 19:50:00+00:00,177.2431,18.7,13.44,47.84626,-54.09684
2018-08-30 20:00:00+00:00,179.8715,18.66,13.37,47.84626,-54.09684
2018-08-30 20:10:00+00:00,180.1515,18.6,13.21,47.84626,-54.09684
2018-08-30 20:20:00+00:00,184.7198,18.55,13.21,47.84626,-54.09684
2018-08-30 20:30:00+00:00,187.7581,18.5,13.21,47.84626,-54.09684
2018-08-30 20:40:00+00:00,185.6381,18.5,13.21,47.84626,-54.09684
2018-08-30 20:50:00+00:00,192.2881,18.5,13.21,47.84626,-54.09684
2018-08-30 21:00:00+00:00,203.7681,18.5,13.13,47.84626,-54.09684
2018-08-30 21:10:00+00:00,205.5898,18.5,13.05,47.84626,-54.09684
2018-08-30 21:20:00+00:00,208.8048,18.6,13.13,47.84626,-54.09684
2018-08-30 21:30:00+00:00,219.9448,18.6,13.13,47.84626,-54.09684
2018-08-30 21:40:00+00:00,224.0381,18.6,13.13,47.84626,-54.09684
2018-08-30 21:50:00+00:00,224.2848,18.6,13.13,47.84626,-54.09684
2018-08-30 22:00:00+00:00,230.0831,18.6,13.05,47.84626,-54.09684
2018-08-30 22:10:00+00:00,239.4214,18.6,13.05,47.84626,-54.09684
2018-08-30 22:20:00+00:00,241.0081,18.6,13.05,47.84626,-54.09684
2018-08-30 22:30:00+00:00,239.9148,18.6,13.13,47.84626,-54.09684
2018-08-30 22:40:00+00:00,244.3731,18.61,13.13,47.84626,-54.09684
2018-08-30 22:50:00+00:00,253.6831,18.6,13.13,47.84626,-54.09684
2018-08-30 23:00:00+00:00,253.5381,18.66,13.05,47.84626,-54.09684
2018-08-30 23:10:00+00:00,254.1598,18.7,12.97,47.84626,-54.09684
2018-08-30 23:20:00+00:00,262.3648,18.7,13.05,47.84626,-54.09684
2018-08-30 23:30:00+00:00,269.4481,18.75,13.05,47.84626,-54.09684
2018-08-30 23:40:00+00:00,270.9914,18.8,13.13,47.84626,-54.09684
2018-08-30 23:50:00+00:00,275.7297,18.89,13.13,47.84626,-54.09684
